Location: ??????
(56.0120°N, 39.1740°E)
Time: 07:56:43
(UTC+00:00)

DNEPR-1 R/B - Pass Details

Date: 14 April 2026
Orbit: 582 x 1331 km, 64.6° (Epoch: 9 May)

Event Time Altitude Azimuth Distance (km) Brightness Sun altitude
Rises 19:08:04 0° 227° (SW) 2,798 6.8 -18.6°
Reaches altitude 10° 19:10:14 10° 227° (SW) 1,903 6.0 -18.8°
Maximum altitude 19:14:26 89° 144° (SE) 613 3.4 -19.1°
Drops below altitude 10° 19:19:02 10° 50° (NE) 2,078 6.3 -19.5°
Sets 19:21:30 0° 50° (NE) 3,081 7.2 -19.6°
